User: anonymous   Login
Location: Unspecified
(29.9680°N, 0.0000°E)
Time: 12:58:33
(UTC+00:00)
Language:

Explorer 11/Cluster Stage 4 - Orbit

View from above orbital plane
View from above orbital plane
View from above satellite
View from above satellite

Ground track
Ground track

The orbit data is extracted from the following two-line orbital elements,

1   107U 61013A   19170.91574195 +.00000326 +00000-0 +25358-4 0  9996
2   107 028.7888 074.3271 0547225 014.0042 347.5068 14.08786509914916
Epoch (UTC): 19 June 2019 21:58:40
Eccentricity: 0.0547225
inclination: 28.7888°
perigee height: 467 km
apogee height: 1260 km
right ascension of ascending node: 74.3271°
argument of perigee: 14.0042°
revolutions per day: 14.08786509
mean anomaly at epoch: 347.5068°
orbit number at epoch: 91491

The dashed part of the orbit path shows where the satellite is in the earth's shadow,  

DLR